Location: ?erven� ?e?ice
(49.5109°N, 15.1746°E)
Time: 07:51:31
(UTC+00:00)

Daily predictions for brighter satellites

Satellite Brightness Start Highest point End
(mag) Time Altitude Azimuth Time Altitude Azimuth Time Altitude Azimuth
Cosmos 1939 Rocket 3.6 16:06:34 10° SE 16:10:14 32° ENE 16:13:53 10° N
Cosmos 1908 3.9 16:06:38 10° NNW 16:10:27 59° W 16:14:15 10° S
NOSS 3-4 (A) 3.9 16:06:11 10° WSW 16:12:01 58° NW 16:18:23 10° NE
NOSS 3-4 (C) 3.9 16:06:19 10° WSW 16:12:10 59° NW 16:18:32 10° NE
Cosmos 1674 3.4 16:13:29 10° SSW 16:17:15 56° WNW 16:21:04 10° N
Cosmos 2279 Rocket 4.2 16:11:29 10° N 16:17:37 52° ENE 16:23:41 10° SSE
Cosmos 1315 Rocket 2.8 16:15:26 10° N 16:19:22 61° ENE 16:23:20 10° SSE
Cosmos 1503 Rocket 4.1 16:16:40 10° SSW 16:22:01 78° ESE 16:27:26 10° NNE
CZ-4 R/B 2.7 16:19:36 10° ESE 16:22:34 20° ENE 16:25:30 10° NNE
Cosmos 2227 4.2 16:17:33 10° SSW 16:23:08 70° ESE 16:28:48 10° NNE
Cosmos 1536 Rocket 3.9 16:19:20 10° SSW 16:23:42 70° W 16:28:09 10° N
COSMO-SKYMED 1 3.6 16:21:00 10° NE 16:24:39 25° E 16:28:16 10° SSE
Cosmos 2227 Rocket 3.9 16:21:31 10° WSW 16:26:21 28° NW 16:31:11 10° NNE
ATLAS 2AS CENTAUR R/B 3.4 16:21:40 10° SW 16:29:35 66° NW 16:37:19 10° NE
Cosmos 1634 Rocket 4.1 16:25:05 10° N 16:31:21 86° W 16:37:38 10° S
Cosmos 1844 Rocket 3.9 16:29:47 10° SSE 16:33:58 22° E 16:37:42 12° ENE
CZ-2C R/B 3.5 16:30:11 10° SE 16:35:11 43° ENE 16:40:28 10° N
Okean-O 3.5 16:33:28 10° ESE 16:37:09 26° ENE 16:40:51 10° N
H-2A R/B 3.3 16:33:15 10° S 16:37:11 53° W 16:41:18 10° NNW
H-2A R/B 2.8 16:34:00 10° ESE 16:38:13 28° ENE 16:42:31 10° N
Cosmos 2344 4.5 16:30:55 10° NW 16:38:54 43° NNE 16:49:23 10° E
CZ-4B R/B 2.1 16:35:52 10° NNE 16:39:00 33° E 16:42:02 10° SSE
Okean O Rocket 1.9 16:35:33 10° S 16:39:59 77° WSW 16:44:27 10° NNW
SeaSat 1 4.1 16:36:27 10° NNE 16:40:38 28° NW 16:44:49 10° WSW
Cosmos 773 Rocket 4.0 16:36:14 10° NNW 16:41:25 89° W 16:46:34 10° SSE
SMAP 3.8 16:37:29 10° S 16:42:03 57° W 16:46:40 10° NNW
Cosmos 1626 2.8 16:39:28 10° SSW 16:43:07 58° WNW 16:46:47 10° N
CZ-4B R/B 3.7 16:38:34 10° S 16:44:04 67° WSW 16:49:43 10° NNW
Cosmos 1689 Rocket 4.4 16:48:09 11° ESE 16:48:09 11° ESE 16:48:18 10° SE
Aureole 2 Rocket 3.6 16:45:35 10° SSE 16:47:45 18° ESE 16:48:02 18° E
Meteor 2-10 Rocket 3.6 16:45:34 10° N 16:51:05 59° ENE 16:56:20 10° SSE
Cosmos 2297 Rocket 4.3 16:47:18 10° W 16:51:12 18° NW 16:55:05 10° N
Cosmos 1606 Rocket 3.8 16:51:53 10° NNW 16:56:16 74° W 17:00:39 10° S
OPS 8737 4.5 16:53:16 10° NW 16:56:23 82° SW 17:00:24 10° SE
CZ-2D R/B 3.2 16:52:55 10° SSE 16:56:44 63° ENE 17:00:33 10° N
H-2A R/B 2.5 16:53:01 10° N 16:57:29 66° WNW 17:01:49 10° SSW
USA 234 3.7 16:52:59 16° ENE 16:58:02 48° N 17:04:16 10° WNW
CSL-04 Rocket 4.4 16:54:24 10° ESE 16:59:07 31° ENE 17:03:53 10° N
YAOGAN 1 3.0 16:55:23 10° SE 16:59:23 38° ENE 17:03:24 10° N
Cosmos 1892 Rocket 3.5 16:55:48 10° S 17:00:05 61° E 17:04:22 10° NNE
ATLAS 5 CENTAUR R/B 1.8 16:58:19 10° SW 17:02:22 63° NW 17:06:05 15° NE
Meteor 2-1 Rocket 4.3 16:58:44 10° N 17:04:10 50° ENE 17:09:31 10° SSE
Helios 1A Rocket 3.5 17:01:29 10° SE 17:05:14 35° ENE 17:09:02 10° N
SL-14 R/B 4.4 17:01:56 10° SSW 17:05:39 44° WNW 17:09:27 10° N
Iridium 4 Rocket 4.4 17:00:43 10° NNE 17:05:39 29° ENE 17:10:17 10° SE
MOS 1 Rocket 3.2 17:02:44 10° NNE 17:06:58 49° E 17:11:06 10° S
RESURS DK-1 3.8 17:03:58 10° WSW 17:07:45 34° NW 17:11:34 10° NNE
Cosmos 2228 4.0 17:04:05 10° NNW 17:08:12 49° W 17:12:19 10° SSW
Cosmos 1812 Rocket 4.4 17:07:29 10° N 17:11:15 27° ENE 17:11:36 26° ENE
SKYMED 2 3.5 17:08:32 10° NNE 17:12:54 74° ESE 17:17:14 10° S
Meteor 2-5 Rocket 4.4 17:09:14 10° SSW 17:14:40 54° WNW 17:20:06 10° N
Cosmos 1538 Rocket 4.0 17:09:56 10° NNW 17:15:07 81° WSW 17:20:17 10° SSE
Aureole 3 3.1 17:11:41 10° N 17:15:15 45° ENE 17:18:18 10° SSE
CZ-4C R/B 3.4 17:11:20 10° W 17:16:17 36° NNW 17:21:18 14° NE
SJ-11-01 4.4 17:12:29 10° SE 17:17:00 49° ENE 17:21:32 10° N
CZ-3B R/B 1.6 17:14:58 10° WNW 17:17:18 67° NNE 17:20:09 23° ESE
SJ 16-02 1.8 17:13:25 10° S 17:17:30 39° ESE 17:18:57 30° ENE
Nadezhda 4 Rocket 4.0 17:12:39 10° S 17:18:46 60° E 17:24:53 10° NNE
Cosmos 2112 Rocket 4.5 17:14:26 10° NNW 17:19:22 38° ENE 17:21:52 24° ESE
Cosmos 1777 Rocket 4.0 17:15:35 10° SSW 17:20:52 89° WNW 17:26:00 11° NNE
Cosmos 2263 Rocket 3.1 17:17:37 10° SW 17:23:06 47° NW 17:28:34 10° NNE
Cosmos 1455 2.0 17:22:00 10° N 17:25:49 67° E 17:29:36 10° SSE
Cosmos 2058 Rocket 3.4 17:23:13 10° NNW 17:27:43 71° W 17:32:12 10° S
COSMOS 2406 4.0 17:26:53 10° NNW 17:32:01 31° NE 17:32:42 30° ENE
X-37B 2.6 17:31:10 10° SSW 17:33:14 19° SSE 17:33:14 19° SSE
Meteor 2-13 Rocket 4.3 17:31:09 10° S 17:37:14 77° E 17:43:24 10° NNE
ARGOS 3.1 17:32:26 10° SSE 17:37:42 61° ENE 17:43:01 10° N
Okean 1-7 Rocket 3.7 17:37:06 10° SSW 17:41:38 78° W 17:46:15 10° N
Lacrosse 5 2.0 17:37:05 10° WNW 17:42:09 72° SW 17:45:00 26° SE
CREW DRAGON DEMO-1 DEB 3.2 17:39:25 10° WNW 17:41:52 58° W 17:41:52 58° W
NOSS 3-1 (C) 4.0 17:35:14 10° NW 17:42:22 63° NE 17:47:11 27° ESE
ERS-2 2.1 17:42:03 34° N 17:43:34 81° WNW 17:47:11 10° SSW
CZ-2C R/B 3.2 17:45:49 37° ESE 17:45:49 37° ESE 17:50:27 10° SSE
ISS -2.6 17:42:32 10° SW 17:45:00 32° S 17:45:00 32° S
PSLV R/B 3.8 17:43:31 25° NNE 17:45:56 85° ESE 17:50:09 10° SSW
CSL-04 Debris 4.0 17:42:25 10° SSE 17:47:47 75° ENE 17:53:11 10° NNW
COSMOS 2455 2.9 17:44:24 10° SW 17:50:27 79° NW 17:54:02 26° NNE
Cosmos 1553 Rocket 4.4 17:44:56 10° N 17:50:59 41° ENE 17:51:30 40° E
Cosmos 1626 Rocket 3.4 17:48:28 10° S 17:52:50 76° E 17:54:01 47° NNE
Cosmos 1833 Rocket 3.3 17:50:00 10° NNW 17:54:41 36° NE 17:54:41 36° NE
Cosmos 1844 3.6 17:49:37 10° SSW 17:55:13 69° ESE 17:57:10 41° NE
Cosmos 2026 Rocket 4.0 17:49:57 10° SSE 17:55:51 55° E 18:01:53 10° NNE
USA 281 4.2 17:56:41 26° NE 17:56:41 26° NE 18:01:33 10° NNW
Cosmos 990 Rocket 4.3 17:51:56 10° S 17:56:18 45° SE 17:56:18 45° SE
Cosmos 2082 Rocket 3.5 17:52:18 10° NNW 17:55:56 24° NNE 17:55:56 24° NNE
CZ-4 R/B 2.3 17:53:19 10° S 17:57:18 49° W 18:01:14 10° NNW
USA 229 DEB 3.9 17:52:14 10° NW 17:59:21 59° NE 18:01:49 42° E
USA 229 3.9 17:52:20 10° NW 17:59:26 59° NE 18:01:52 42° E
COSMO-SKYMED 1 3.9 17:56:53 10° N 18:00:56 39° WNW 18:04:57 10° SW
DMSP B5D1-3 4.3 18:01:31 30° NNE 18:04:09 82° ESE 18:09:15 10° SSW
USA 267 3.8 18:04:12 35° SE 18:04:23 35° SE 18:10:17 10° SSW
SL-08 RB Rocket 3.7 18:05:16 61° NNE 18:05:16 61° NNE 18:09:07 10° N
CZ-4B R/B 4.1 18:08:31 10° NNW 18:11:00 19° WNW 18:13:26 10° WSW
Okean-O 3.9 18:09:18 10° SSW 18:13:28 40° W 18:17:40 10° NNW
NOSS 3-1 (A) 4.0 18:07:45 10° NW 18:14:55 63° NE 18:16:58 49° E
Cosmos 1844 Rocket 2.8 18:11:38 10° SW 18:17:18 72° WNW 18:19:24 40° NNE
H-2A R/B 2.9 18:12:37 10° S 18:17:25 47° W 18:22:22 10° NNW
Meteor 1-21 Rocket 4.5 18:14:05 10° SSW 18:19:34 66° WNW 18:25:07 10° N
Cosmos 2195 Rocket 4.5 18:15:10 10° S 18:21:30 87° W 18:27:54 10° N
ATLAS 2AS CENTAUR R/B 4.2 18:15:02 10° W 18:21:59 32° NNW 18:25:30 23° NNE
Meteor 2-8 Rocket 4.5 18:16:10 10° NNW 18:22:16 78° W 18:28:22 10° S
Meteor 2-15 4.3 18:16:49 10° N 18:23:00 78° E 18:24:42 50° SSE
Cosmos 1680 Rocket 3.9 18:19:00 10° NNW 18:24:12 63° WSW 18:26:36 31° S
Cosmos 1898 Rocket 4.2 18:20:11 10° SSW 18:23:42 42° S 18:23:42 42° S
Cosmos 1627 Rocket 4.4 18:25:11 10° S 18:31:22 83° W 18:37:41 10° N
Cosmos 2098 Rocket 4.2 18:25:35 10° S 18:32:41 82° E 18:40:11 10° N
Cosmos 1818 3.8 18:29:06 10° SW 18:34:30 64° NW 18:34:52 62° NNW
Cosmos 1428 Rocket 4.5 18:30:05 10° SSW 18:36:22 82° W 18:42:45 10° N
USA 234 3.1 18:40:20 73° NE 18:40:39 75° NNE 18:47:12 10° WNW
Iridium 4 Rocket 4.5 18:40:23 10° NNW 18:45:55 50° W 18:51:02 10° SSW
ATLAS 5 CENTAUR R/B 3.7 18:44:36 10° WNW 18:47:38 20° NNW 18:47:38 20° NNW
Cosmos 2344 4.3 18:45:21 10° NW 18:54:34 85° SW 18:59:35 42° SSE
SJ 16-02 3.2 18:52:24 10° WSW 18:55:59 27° WNW 18:55:59 27° WNW
CZ-4C R/B 4.1 19:01:52 10° NW 19:06:30 24° N 19:06:30 24° N
COSMOS 2406 4.3 19:11:00 10° NW 19:14:49 40° NW 19:14:49 40° NW
Lacrosse 5 4.3 19:21:17 10° W 19:24:15 16° WSW 19:24:15 16° WSW
CZ-2C R/B 4.2 19:27:19 31° WSW 19:27:19 31° WSW 19:30:44 10° SW
Cosmos 2082 Rocket 4.3 19:36:00 10° NNW 19:37:48 21° NNW 19:37:48 21° NNW
